Hourly Data Report for October 22, 2012

All times are specified in Local Standard Time (LST). Add 1 hour to adjust for Daylight Saving Time where and when it is observed.

KITCHENER/WATERLOO
ONTARIO

43°27'39.000" N
80°22'43.000" W
321.60 m
6144239
71368
YKF

Download Data

Hourly Data (October 2012)
Hourly Data Report for October 22, 2012
Temp Definition
°C
Dew Point Temp Definition
°C
Rel Hum Definition
%
Wind Dir Definition
10's deg

Wind Spd Definition
km/h
Visibility Definition
km
Stn Press Definition
kPa
Hmdx Definition


Wind Chill Definition


Weather Definition


TIME
00:00 Legend Double Dagger 3.8 3.4 97 23 4 14.5 98.06     LegendNANA
01:00 Legend Double Dagger 2.4 2.1 98   0 2.8 98.06     LegendNANA
02:00 Legend Double Dagger 1.3 1.2 99   0 0.8 98.07     LegendNANA
03:00 Legend Double Dagger 1.4 1.3 99   0 1.6 98.07     LegendNANA
04:00 Legend Double Dagger 2.0 1.9 99 27 4 8.1 98.07     LegendNANA
05:00 Legend Double Dagger 3.0 2.9 99   0 6.4 98.10     LegendNANA
06:00 Legend Double Dagger 1.4 1.3 99 10 4 4.8 98.11     LegendNANA
07:00 Legend Double Dagger 1.0 0.9 99   0 0.2 98.18     LegendNANA
08:00 Legend Double Dagger 4.4 4.3 99 7 8 4.0 98.18     LegendNANA
09:00 Legend Double Dagger 9.4 6.5 82 LegendMM 4 14.5 98.20     LegendNANA
10:00 Legend Double Dagger 13.4 7.5 67 18 8 16.1 98.20     LegendNANA
11:00 Legend Double Dagger 15.3 6.9 57 19 17 16.1 98.18     LegendNANA
12:00 Legend Double Dagger 16.2 7.7 57 19 17 16.1 98.13     LegendNANA
13:00 Legend Double Dagger 17.6 8.9 56 23 9 16.1 98.07     LegendNANA
14:00 Legend Double Dagger 18.6 10.2 58 20 15 16.1 98.00     LegendNANA
15:00 Legend Double Dagger 18.9 10.3 57 19 9 16.1 97.96     LegendNANA
16:00 Legend Double Dagger 18.7 10.2 58 17 11 16.1 97.96     LegendNANA
17:00 Legend Double Dagger 16.9 9.9 63 22 13 16.1 97.98     LegendNANA
18:00 Legend Double Dagger 15.6 9.5 67 18 9 16.1 98.00     LegendNANA
19:00 Legend Double Dagger 12.7 9.1 79 16 4 16.1 97.98     LegendNANA
20:00 Legend Double Dagger 10.9 8.8 87 13 8 16.1 97.95     LegendNANA
21:00 Legend Double Dagger 10.7 9.6 93 LegendMM 4 16.1 98.00     LegendNANA
22:00 Legend Double Dagger 12.0 11.2 95 18 11 8.1 97.93     LegendNANA
23:00 Legend Double Dagger 11.8 11.3 97   0 3.6 97.97     LegendNANA

Notes on Data Quality.

Legend

  • E = Estimated
  • M = Missing
  • NA = Not Available
  • ‡ = Partner data that is not subject to review by the National Climate Archives
Date modified: